EZY74UE EGGD-LGZA

Flight info

Callsign EZY74UE
Flight time 3h 12m
Altitude 37000
Route YORQI1Z YORQI DCT NUCHU L607 BIG L15 MOTOX DCT RUCAC DCT LESDO DCT ETINO DCT LUPEN DCT BATUB DCT MOMUK/N0432F390 DCT GEDSO DCT VEKEN DCT NERRA DCT RODON DCT LIMJA DCT PITAS/N0408F330 UN732 KRK UT321 ASTUS DCT
Aircraft A20N/M-SDE2E3FGHIRWXY/LB1

Departure

Time 2026-04-25 12:45
Airport Bristol Airport (EGGD)

Arrival

Time 2026-04-25 15:57
Airport Zakynthos International Airport Dionysios Solomos (LGZA)
Time Latitude Longitude Altitude Speed Heading
2026-04-25 12:16 51.38519 -2.71736 615 ft 0 kts 356°
2026-04-25 12:35 51.38503 -2.71735 622 ft 4 kts 356°
2026-04-25 12:35 51.38476 -2.71732 617 ft 4 kts 356°
2026-04-25 12:36 51.38455 -2.71730 616 ft 4 kts 342°
2026-04-25 12:36 51.38437 -2.71707 622 ft 4 kts 277°
2026-04-25 12:36 51.38437 -2.71680 619 ft 0 kts 266°
2026-04-25 12:40 51.38436 -2.71708 621 ft 6 kts 266°
2026-04-25 12:40 51.38431 -2.71832 605 ft 15 kts 266°
2026-04-25 12:40 51.38432 -2.72028 605 ft 19 kts 267°
2026-04-25 12:40 51.38424 -2.72250 612 ft 20 kts 266°
2026-04-25 12:41 51.38415 -2.72465 611 ft 19 kts 266°
2026-04-25 12:41 51.38405 -2.72694 617 ft 22 kts 266°
2026-04-25 12:41 51.38395 -2.72959 609 ft 24 kts 267°
2026-04-25 12:41 51.38389 -2.73122 606 ft 11 kts 266°
2026-04-25 12:42 51.38385 -2.73231 610 ft 9 kts 263°
2026-04-25 12:42 51.38368 -2.73293 615 ft 10 kts 233°
2026-04-25 12:42 51.38267 -2.73335 625 ft 13 kts 173°
2026-04-25 12:42 51.38212 -2.73308 627 ft 3 kts 116°
2026-04-25 12:43 51.38214 -2.73279 630 ft 0 kts 86°
2026-04-25 12:44 51.38214 -2.73277 630 ft 1 kts 86°
2026-04-25 12:44 51.38218 -2.73177 631 ft 34 kts 87°
2026-04-25 12:44 51.38312 -2.70771 795 ft 154 kts 88°
2026-04-25 12:45 51.38375 -2.69059 1577 ft 157 kts 87°
2026-04-25 12:45 51.38447 -2.67255 2338 ft 168 kts 84°
2026-04-25 12:45 51.38642 -2.63022 3203 ft 213 kts 86°
2026-04-25 12:46 51.38723 -2.60506 3581 ft 238 kts 87°
2026-04-25 12:46 51.38787 -2.57730 4047 ft 261 kts 88°
2026-04-25 12:46 51.39152 -2.54854 4750 ft 269 kts 62°
2026-04-25 12:46 51.40339 -2.52557 5634 ft 271 kts 33°
2026-04-25 12:47 51.42031 -2.51218 6526 ft 273 kts 19°
2026-04-25 12:47 51.43829 -2.50180 7373 ft 276 kts 19°
2026-04-25 12:47 51.45617 -2.48987 8224 ft 280 kts 24°
2026-04-25 12:47 51.47357 -2.47532 9081 ft 284 kts 28°
2026-04-25 12:48 51.49071 -2.45908 9934 ft 288 kts 30°
2026-04-25 12:48 51.50699 -2.44049 10590 ft 299 kts 44°
2026-04-25 12:48 51.51917 -2.41198 10831 ft 324 kts 67°
2026-04-25 12:48 51.52396 -2.37560 11098 ft 344 kts 89°
2026-04-25 12:49 51.52138 -2.33703 11776 ft 350 kts 100°
2026-04-25 12:49 51.51666 -2.29850 12537 ft 354 kts 101°
2026-04-25 12:49 51.51217 -2.25937 13275 ft 359 kts 99°
2026-04-25 12:49 51.50838 -2.21953 14000 ft 363 kts 98°
2026-04-25 12:50 51.50615 -2.19225 14441 ft 366 kts 97°
2026-04-25 12:50 51.50215 -2.13811 15297 ft 372 kts 96°
2026-04-25 12:50 51.49924 -2.09666 15936 ft 376 kts 96°
2026-04-25 12:50 51.49632 -2.05477 16569 ft 380 kts 96°
2026-04-25 12:51 51.49334 -2.01244 17187 ft 384 kts 96°
2026-04-25 12:51 51.49030 -1.96962 17808 ft 388 kts 96°
2026-04-25 12:51 51.48721 -1.92628 18210 ft 393 kts 96°
2026-04-25 12:51 51.48405 -1.88263 18865 ft 394 kts 96°
2026-04-25 12:52 51.48089 -1.83894 19429 ft 397 kts 97°
2026-04-25 12:52 51.47771 -1.79464 19968 ft 401 kts 97°
2026-04-25 12:52 51.47451 -1.75010 20503 ft 404 kts 97°
2026-04-25 12:52 51.47124 -1.70517 21037 ft 407 kts 97°
2026-04-25 12:53 51.46793 -1.65990 21576 ft 410 kts 97°
2026-04-25 12:53 51.46459 -1.61425 22086 ft 414 kts 97°
2026-04-25 12:53 51.46118 -1.56822 22607 ft 417 kts 97°
2026-04-25 12:53 51.45773 -1.52185 23111 ft 421 kts 98°
2026-04-25 12:54 51.45424 -1.47512 23614 ft 424 kts 98°
2026-04-25 12:54 51.45070 -1.42799 24049 ft 427 kts 98°
2026-04-25 12:54 51.44713 -1.38058 24477 ft 430 kts 98°
2026-04-25 12:54 51.44351 -1.33284 24913 ft 432 kts 98°
2026-04-25 12:55 51.43984 -1.28488 25327 ft 435 kts 98°
2026-04-25 12:55 51.43738 -1.25293 25592 ft 437 kts 98°
2026-04-25 12:55 51.43052 -1.18861 26121 ft 439 kts 106°
2026-04-25 12:55 51.42272 -1.14120 26506 ft 442 kts 106°
2026-04-25 12:56 51.41477 -1.09354 26885 ft 444 kts 106°
2026-04-25 12:56 51.40677 -1.04562 27259 ft 447 kts 106°
2026-04-25 12:56 51.39873 -0.99743 27619 ft 449 kts 106°
2026-04-25 12:56 51.39062 -0.94898 27975 ft 452 kts 107°
2026-04-25 12:57 51.38259 -0.90100 28344 ft 453 kts 107°
2026-04-25 12:57 51.37438 -0.85218 28686 ft 455 kts 107°
2026-04-25 12:57 51.36600 -0.80246 29011 ft 458 kts 107°
2026-04-25 12:57 51.35778 -0.75386 29331 ft 460 kts 107°
2026-04-25 12:58 51.34928 -0.70373 29651 ft 462 kts 107°
2026-04-25 12:58 51.34084 -0.65404 29952 ft 464 kts 107°
2026-04-25 12:58 51.33246 -0.60485 30257 ft 465 kts 107°
2026-04-25 12:58 51.32395 -0.55496 30576 ft 466 kts 107°
2026-04-25 12:59 51.31537 -0.50485 30827 ft 468 kts 107°
2026-04-25 12:59 51.30673 -0.45458 31087 ft 470 kts 107°
2026-04-25 12:59 51.29803 -0.40409 31367 ft 472 kts 107°
2026-04-25 12:59 51.28929 -0.35354 31700 ft 472 kts 107°
2026-04-25 13:00 51.28055 -0.30314 32027 ft 471 kts 107°
2026-04-25 13:00 51.27760 -0.28610 32151 ft 471 kts 107°
2026-04-25 13:00 51.26300 -0.20245 32710 ft 470 kts 107°
2026-04-25 13:00 51.25420 -0.15225 33030 ft 469 kts 107°
2026-04-25 13:01 51.24540 -0.10216 33362 ft 469 kts 107°
2026-04-25 13:01 51.23658 -0.05207 33671 ft 468 kts 107°
2026-04-25 13:01 51.22776 -0.00207 33975 ft 468 kts 107°
2026-04-25 13:01 51.21895 0.04790 34251 ft 468 kts 108°
2026-04-25 13:02 51.21309 0.08095 34419 ft 468 kts 108°
2026-04-25 13:02 51.20423 0.13079 34677 ft 467 kts 108°
2026-04-25 13:02 51.19535 0.18060 34927 ft 466 kts 108°
2026-04-25 13:02 51.18648 0.23028 35157 ft 466 kts 108°
2026-04-25 13:03 51.17758 0.27991 35391 ft 465 kts 108°
2026-04-25 13:03 51.16867 0.32949 35603 ft 465 kts 108°
2026-04-25 13:03 51.15976 0.37901 35822 ft 465 kts 108°
2026-04-25 13:03 51.15084 0.42841 36014 ft 464 kts 108°
2026-04-25 13:04 51.14190 0.47785 36209 ft 464 kts 108°
2026-04-25 13:04 51.13295 0.52715 36389 ft 464 kts 108°
2026-04-25 13:04 51.12397 0.57647 36576 ft 463 kts 108°
2026-04-25 13:04 51.11498 0.62567 36755 ft 463 kts 108°
2026-04-25 13:05 51.10598 0.67483 36923 ft 463 kts 108°
2026-04-25 13:05 51.09694 0.72396 37080 ft 462 kts 108°
2026-04-25 13:05 51.08790 0.77298 37238 ft 462 kts 108°
2026-04-25 13:05 51.07884 0.82203 37234 ft 462 kts 108°
2026-04-25 13:06 51.06074 0.91980 37220 ft 461 kts 108°
2026-04-25 13:06 51.04252 1.01760 37237 ft 462 kts 108°
2026-04-25 13:07 51.02420 1.11541 37237 ft 462 kts 108°
2026-04-25 13:07 51.00595 1.21243 37231 ft 462 kts 108°
2026-04-25 13:08 50.98747 1.31011 37229 ft 462 kts 109°
2026-04-25 13:08 50.96893 1.40771 37225 ft 462 kts 109°
2026-04-25 13:09 50.94776 1.50378 37206 ft 461 kts 116°
2026-04-25 13:09 50.92231 1.59705 37212 ft 461 kts 115°
2026-04-25 13:10 50.89619 1.68977 37217 ft 460 kts 121°
2026-04-25 13:10 50.86045 1.77301 37209 ft 456 kts 134°
2026-04-25 13:11 50.81578 1.84357 37211 ft 454 kts 139°
2026-04-25 13:11 50.77004 1.91240 37202 ft 455 kts 139°
2026-04-25 13:12 50.72418 1.98137 37205 ft 456 kts 139°
2026-04-25 13:12 50.68598 2.03864 37209 ft 456 kts 139°
2026-04-25 13:13 50.63210 2.11918 37210 ft 457 kts 139°
2026-04-25 13:13 50.58602 2.18783 37203 ft 455 kts 139°
2026-04-25 13:14 50.54001 2.25624 37198 ft 455 kts 139°
2026-04-25 13:14 50.49392 2.32455 37194 ft 456 kts 139°
2026-04-25 13:15 50.44762 2.39293 37191 ft 457 kts 139°
2026-04-25 13:15 50.40132 2.46116 37189 ft 456 kts 140°
2026-04-25 13:16 50.35503 2.52906 37183 ft 456 kts 140°
2026-04-25 13:16 50.30875 2.59678 37182 ft 455 kts 140°
2026-04-25 13:17 50.26281 2.66386 37174 ft 455 kts 140°
2026-04-25 13:17 50.21657 2.73120 37170 ft 454 kts 140°
2026-04-25 13:18 50.17019 2.79856 37183 ft 458 kts 140°
2026-04-25 13:18 50.12360 2.86618 37179 ft 456 kts 139°
2026-04-25 13:19 50.07710 2.93343 37176 ft 457 kts 140°
2026-04-25 13:19 50.03837 2.98926 37176 ft 456 kts 140°
2026-04-25 13:20 49.98389 3.06758 37174 ft 456 kts 140°
2026-04-25 13:20 49.93723 3.13440 37173 ft 456 kts 140°
2026-04-25 13:21 49.89050 3.20104 37157 ft 457 kts 140°
2026-04-25 13:21 49.84368 3.26762 37159 ft 457 kts 140°
2026-04-25 13:22 49.79841 3.33677 37161 ft 459 kts 132°
2026-04-25 13:23 49.73872 3.45302 37161 ft 461 kts 130°
2026-04-25 13:23 49.69883 3.53054 37164 ft 461 kts 130°
2026-04-25 13:24 49.65882 3.60788 37178 ft 461 kts 130°
2026-04-25 13:24 49.61869 3.68519 37156 ft 462 kts 130°
2026-04-25 13:25 49.57845 3.76251 37159 ft 463 kts 130°
2026-04-25 13:25 49.53810 3.83982 37163 ft 463 kts 130°
2026-04-25 13:26 49.49794 3.91660 37169 ft 464 kts 130°
2026-04-25 13:26 49.45739 3.99389 37175 ft 464 kts 130°
2026-04-25 13:27 49.41662 4.07135 37166 ft 462 kts 130°
2026-04-25 13:27 49.37616 4.14794 37162 ft 462 kts 131°
2026-04-25 13:28 49.33588 4.22392 37162 ft 462 kts 130°
2026-04-25 13:28 49.29531 4.30029 37162 ft 462 kts 131°
2026-04-25 13:29 49.25470 4.37657 37162 ft 462 kts 130°
2026-04-25 13:29 49.21403 4.45275 37132 ft 462 kts 130°
2026-04-25 13:30 49.15290 4.56674 37144 ft 462 kts 130°
2026-04-25 13:31 49.09157 4.68063 37148 ft 463 kts 130°
2026-04-25 13:31 49.05056 4.75643 37151 ft 464 kts 131°
2026-04-25 13:32 49.00942 4.83213 37150 ft 464 kts 131°
2026-04-25 13:32 48.96820 4.90788 37137 ft 465 kts 131°
2026-04-25 13:33 48.92691 4.98364 37139 ft 465 kts 131°
2026-04-25 13:33 48.89166 5.06598 37139 ft 467 kts 115°
2026-04-25 13:34 48.87094 5.15917 37144 ft 467 kts 102°
2026-04-25 13:34 48.85617 5.25525 37158 ft 468 kts 103°
2026-04-25 13:35 48.84105 5.35141 37150 ft 468 kts 103°
2026-04-25 13:35 48.82575 5.44758 37155 ft 469 kts 103°
2026-04-25 13:36 48.81032 5.54378 37157 ft 470 kts 103°
2026-04-25 13:36 48.79482 5.64003 37138 ft 469 kts 103°
2026-04-25 13:37 48.77930 5.73592 37139 ft 468 kts 103°
2026-04-25 13:37 48.76369 5.83173 37135 ft 468 kts 103°
2026-04-25 13:38 48.74798 5.92753 37133 ft 468 kts 103°
2026-04-25 13:38 48.73219 6.02330 37132 ft 468 kts 103°
2026-04-25 13:39 48.71631 6.11894 37139 ft 468 kts 103°
2026-04-25 13:39 48.70039 6.21453 37132 ft 468 kts 103°
2026-04-25 13:40 48.68439 6.31001 37129 ft 468 kts 103°
2026-04-25 13:40 48.66832 6.40536 37129 ft 468 kts 103°
2026-04-25 13:41 48.65216 6.50065 37130 ft 468 kts 103°
2026-04-25 13:41 48.63591 6.59590 37133 ft 468 kts 103°
2026-04-25 13:42 48.61960 6.69106 37130 ft 468 kts 103°
2026-04-25 13:42 48.60330 6.78545 37129 ft 467 kts 104°
2026-04-25 13:43 48.58684 6.88042 37128 ft 467 kts 103°
2026-04-25 13:43 48.57033 6.97533 37131 ft 467 kts 103°
2026-04-25 13:44 48.55374 7.07020 37131 ft 467 kts 104°
2026-04-25 13:44 48.53707 7.16502 37127 ft 467 kts 104°
2026-04-25 13:45 48.52029 7.25976 37125 ft 467 kts 104°
2026-04-25 13:45 48.50344 7.35441 37119 ft 467 kts 104°
2026-04-25 13:46 48.48652 7.44901 37119 ft 467 kts 104°
2026-04-25 13:46 48.46953 7.54351 37110 ft 467 kts 104°
2026-04-25 13:47 48.45248 7.63792 37103 ft 467 kts 104°
2026-04-25 13:47 48.43525 7.73211 37096 ft 467 kts 106°
2026-04-25 13:48 48.41488 7.82489 37098 ft 467 kts 107°
2026-04-25 13:48 48.39469 7.91773 37098 ft 467 kts 107°
2026-04-25 13:49 48.37781 7.99485 37101 ft 467 kts 107°
2026-04-25 13:49 48.35742 8.08748 37110 ft 466 kts 107°
2026-04-25 13:50 48.33690 8.18001 37108 ft 466 kts 107°
2026-04-25 13:50 48.31632 8.27242 37108 ft 466 kts 107°
2026-04-25 13:51 48.29567 8.36475 37106 ft 466 kts 107°
2026-04-25 13:51 48.27493 8.45704 37106 ft 466 kts 107°
2026-04-25 13:52 48.25415 8.54924 37108 ft 467 kts 107°
2026-04-25 13:52 48.23323 8.64142 37101 ft 467 kts 107°
2026-04-25 13:53 48.21227 8.73351 37107 ft 467 kts 108°
2026-04-25 13:53 48.19120 8.82558 37099 ft 467 kts 108°
2026-04-25 13:54 48.17008 8.91754 37095 ft 467 kts 108°
2026-04-25 13:54 48.14890 9.00943 37106 ft 467 kts 108°
2026-04-25 13:55 48.12763 9.10125 37096 ft 466 kts 108°
2026-04-25 13:55 48.10630 9.19290 37090 ft 466 kts 108°
2026-04-25 13:56 48.08486 9.28447 37089 ft 466 kts 108°
2026-04-25 13:56 48.06341 9.37586 37088 ft 466 kts 108°
2026-04-25 13:57 48.04191 9.46706 37082 ft 464 kts 108°
2026-04-25 13:57 48.01887 9.55694 37084 ft 464 kts 114°
2026-04-25 13:58 47.98706 9.64098 37082 ft 465 kts 121°
2026-04-25 13:58 47.95290 9.72305 37086 ft 465 kts 121°
2026-04-25 13:59 47.91880 9.80512 37101 ft 465 kts 121°
2026-04-25 13:59 47.88473 9.88675 37093 ft 463 kts 121°
2026-04-25 14:00 47.85070 9.96796 37071 ft 461 kts 122°
2026-04-25 14:00 47.81708 10.04983 37097 ft 465 kts 120°
2026-04-25 14:01 47.78482 10.13312 37098 ft 464 kts 119°
2026-04-25 14:01 47.75253 10.21613 37098 ft 464 kts 121°
2026-04-25 14:02 47.71997 10.29888 37095 ft 464 kts 121°
2026-04-25 14:02 47.68723 10.38149 37105 ft 464 kts 121°
2026-04-25 14:03 47.65465 10.46350 37110 ft 465 kts 121°
2026-04-25 14:03 47.62181 10.54609 37103 ft 465 kts 122°
2026-04-25 14:04 47.58887 10.62865 37090 ft 465 kts 122°
2026-04-25 14:04 47.55585 10.71109 37091 ft 466 kts 122°
2026-04-25 14:05 47.52271 10.79354 37082 ft 466 kts 122°
2026-04-25 14:05 47.48954 10.87576 37077 ft 464 kts 123°
2026-04-25 14:06 47.45644 10.95764 37054 ft 464 kts 123°
2026-04-25 14:06 47.42325 11.03947 37063 ft 464 kts 123°
2026-04-25 14:07 47.38998 11.12127 37047 ft 465 kts 123°
2026-04-25 14:07 47.35655 11.20313 37044 ft 466 kts 123°
2026-04-25 14:08 47.32301 11.28501 37003 ft 467 kts 124°
2026-04-25 14:08 47.28928 11.36718 37021 ft 470 kts 124°
2026-04-25 14:09 47.25542 11.44935 37023 ft 470 kts 124°
2026-04-25 14:09 47.22143 11.53148 37025 ft 470 kts 124°
2026-04-25 14:10 47.18733 11.61377 37030 ft 472 kts 124°
2026-04-25 14:10 47.15315 11.69620 37036 ft 472 kts 124°
2026-04-25 14:11 47.11895 11.77848 37047 ft 473 kts 124°
2026-04-25 14:11 47.08456 11.86083 37041 ft 472 kts 123°
2026-04-25 14:12 47.05473 11.94679 37048 ft 474 kts 118°
2026-04-25 14:12 47.02593 12.03374 37040 ft 474 kts 118°
2026-04-25 14:13 46.99697 12.12047 37044 ft 473 kts 118°
2026-04-25 14:13 46.96788 12.20698 37042 ft 474 kts 118°
2026-04-25 14:14 46.93862 12.29348 37048 ft 474 kts 119°
2026-04-25 14:14 46.90934 12.37987 37039 ft 473 kts 119°
2026-04-25 14:15 46.88016 12.46589 37040 ft 472 kts 119°
2026-04-25 14:15 46.85088 12.55174 37033 ft 472 kts 119°
2026-04-25 14:16 46.82151 12.63752 37024 ft 473 kts 119°
2026-04-25 14:16 46.79230 12.72261 37002 ft 472 kts 119°
2026-04-25 14:17 46.76299 12.80782 37021 ft 471 kts 119°
2026-04-25 14:17 46.73338 12.89343 37006 ft 474 kts 119°
2026-04-25 14:18 46.70366 12.97916 37017 ft 474 kts 119°
2026-04-25 14:18 46.67392 13.06462 37013 ft 472 kts 119°
2026-04-25 14:19 46.64409 13.15014 37018 ft 475 kts 119°
2026-04-25 14:19 46.61423 13.23560 37001 ft 473 kts 120°
2026-04-25 14:20 46.58405 13.32045 37007 ft 471 kts 123°
2026-04-25 14:20 46.54590 13.39688 37007 ft 465 kts 136°
2026-04-25 14:21 46.49852 13.46000 37019 ft 464 kts 144°
2026-04-25 14:21 46.44931 13.52041 37019 ft 464 kts 143°
2026-04-25 14:22 46.40020 13.58093 37022 ft 464 kts 143°
2026-04-25 14:22 46.35139 13.64110 37024 ft 464 kts 143°
2026-04-25 14:23 46.30229 13.70123 37036 ft 463 kts 144°
2026-04-25 14:23 46.25292 13.76150 37025 ft 466 kts 144°
2026-04-25 14:24 46.20348 13.82175 37030 ft 464 kts 144°
2026-04-25 14:24 46.15407 13.88185 37020 ft 464 kts 144°
2026-04-25 14:25 46.10466 13.94176 37019 ft 464 kts 144°
2026-04-25 14:25 46.05550 14.00130 37004 ft 460 kts 144°
2026-04-25 14:26 46.00649 14.06043 37020 ft 463 kts 144°
2026-04-25 14:26 45.95694 14.12008 37008 ft 465 kts 144°
2026-04-25 14:27 45.90743 14.17959 37016 ft 464 kts 144°
2026-04-25 14:27 45.85784 14.23904 37006 ft 464 kts 144°
2026-04-25 14:28 45.80829 14.29829 37005 ft 464 kts 144°
2026-04-25 14:28 45.75868 14.35749 36998 ft 464 kts 144°
2026-04-25 14:29 45.70901 14.41662 37001 ft 464 kts 144°
2026-04-25 14:29 45.65929 14.47563 37002 ft 465 kts 144°
2026-04-25 14:30 45.60950 14.53462 37018 ft 465 kts 144°
2026-04-25 14:30 45.53478 14.62290 37015 ft 463 kts 143°
2026-04-25 14:31 45.48509 14.68138 37010 ft 463 kts 143°
2026-04-25 14:31 45.43535 14.73979 37015 ft 463 kts 143°
2026-04-25 14:32 45.38565 14.79807 37022 ft 462 kts 143°
2026-04-25 14:32 45.33603 14.85607 37018 ft 461 kts 143°
2026-04-25 14:33 45.28635 14.91396 37005 ft 462 kts 143°
2026-04-25 14:33 45.24511 14.96196 37010 ft 461 kts 143°
2026-04-25 14:34 45.19548 15.01957 37000 ft 460 kts 144°
2026-04-25 14:34 45.14588 15.07701 37001 ft 460 kts 143°
2026-04-25 14:35 45.09627 15.13441 37009 ft 461 kts 143°
2026-04-25 14:35 45.04657 15.19171 37013 ft 461 kts 143°
2026-04-25 14:36 44.99686 15.24892 37004 ft 461 kts 144°
2026-04-25 14:36 44.94710 15.30605 37020 ft 461 kts 143°
2026-04-25 14:37 44.89734 15.36308 37024 ft 461 kts 143°
2026-04-25 14:37 44.84753 15.41999 37012 ft 461 kts 143°
2026-04-25 14:38 44.79765 15.47687 37014 ft 461 kts 144°
2026-04-25 14:38 44.74773 15.53360 37013 ft 461 kts 144°
2026-04-25 14:39 44.69779 15.59024 37001 ft 461 kts 143°
2026-04-25 14:39 44.64805 15.64650 37009 ft 458 kts 144°
2026-04-25 14:40 44.59824 15.70268 37013 ft 460 kts 143°
2026-04-25 14:40 44.54842 15.75896 37013 ft 460 kts 143°
2026-04-25 14:41 44.49854 15.81503 37014 ft 460 kts 143°
2026-04-25 14:41 44.44901 15.87063 37013 ft 458 kts 143°
2026-04-25 14:42 44.40742 15.91724 37021 ft 457 kts 143°
2026-04-25 14:42 44.34959 15.98184 37014 ft 458 kts 143°
2026-04-25 14:43 44.29982 16.03732 37019 ft 458 kts 143°
2026-04-25 14:43 44.25003 16.09269 37018 ft 458 kts 143°
2026-04-25 14:44 44.20030 16.14787 37016 ft 455 kts 143°
2026-04-25 14:44 44.15075 16.20277 37019 ft 457 kts 143°
2026-04-25 14:45 44.10095 16.25781 37016 ft 457 kts 143°
2026-04-25 14:45 44.05108 16.31277 37022 ft 456 kts 143°
2026-04-25 14:46 44.00118 16.36763 37012 ft 459 kts 143°
2026-04-25 14:46 43.95148 16.42217 37019 ft 454 kts 143°
2026-04-25 14:47 43.91009 16.46749 37014 ft 459 kts 143°
2026-04-25 14:47 43.85147 16.53153 37013 ft 459 kts 143°
2026-04-25 14:48 43.80151 16.58606 37010 ft 457 kts 143°
2026-04-25 14:48 43.75135 16.64062 37020 ft 455 kts 143°
2026-04-25 14:49 43.70152 16.69466 37021 ft 458 kts 143°
2026-04-25 14:49 43.65107 16.74924 37019 ft 460 kts 143°
2026-04-25 14:50 43.60094 16.80342 37020 ft 459 kts 143°
2026-04-25 14:50 43.55061 16.85771 37029 ft 456 kts 142°
2026-04-25 14:51 43.50053 16.91161 37027 ft 458 kts 143°
2026-04-25 14:51 43.45012 16.96574 37026 ft 460 kts 143°
2026-04-25 14:52 43.39979 17.01962 37030 ft 460 kts 143°
2026-04-25 14:52 43.35776 17.06453 37029 ft 461 kts 142°
2026-04-25 14:53 43.29885 17.12767 37022 ft 456 kts 140°
2026-04-25 14:53 43.24917 17.18216 37027 ft 458 kts 140°
2026-04-25 14:54 43.19915 17.23552 37021 ft 455 kts 140°
2026-04-25 14:54 43.14876 17.28880 37018 ft 459 kts 141°
2026-04-25 14:55 43.09834 17.34181 37017 ft 457 kts 141°
2026-04-25 14:55 43.04769 17.39493 37019 ft 458 kts 142°
2026-04-25 14:56 42.99713 17.44806 37019 ft 458 kts 141°
2026-04-25 14:56 42.94666 17.50116 37021 ft 460 kts 141°
2026-04-25 14:57 42.89662 17.55384 37019 ft 456 kts 141°
2026-04-25 14:57 42.84691 17.60839 37022 ft 457 kts 140°
2026-04-25 14:58 42.79799 17.66277 37018 ft 452 kts 140°
2026-04-25 14:58 42.74888 17.71669 37020 ft 454 kts 140°
2026-04-25 14:59 42.69972 17.77058 37014 ft 454 kts 140°
2026-04-25 14:59 42.65052 17.82449 37020 ft 454 kts 140°
2026-04-25 15:00 42.60133 17.87834 37033 ft 454 kts 140°
2026-04-25 15:00 42.55256 17.93165 37023 ft 452 kts 140°
2026-04-25 15:01 42.50353 17.98503 37020 ft 452 kts 140°
2026-04-25 15:01 42.45453 18.03845 37020 ft 452 kts 140°
2026-04-25 15:02 42.40561 18.09194 37020 ft 452 kts 140°
2026-04-25 15:02 42.35662 18.14524 37029 ft 452 kts 140°
2026-04-25 15:03 42.30747 18.19828 37029 ft 452 kts 140°
2026-04-25 15:03 42.25830 18.25115 37032 ft 452 kts 140°
2026-04-25 15:04 42.20912 18.30401 37030 ft 452 kts 140°
2026-04-25 15:04 42.16003 18.35685 37029 ft 452 kts 140°
2026-04-25 15:05 42.11093 18.40948 37028 ft 449 kts 140°
2026-04-25 15:06 42.03758 18.48802 37026 ft 450 kts 140°
2026-04-25 15:06 41.98855 18.54031 37029 ft 450 kts 140°
2026-04-25 15:07 41.93946 18.59248 37032 ft 450 kts 140°
2026-04-25 15:07 41.89040 18.64469 37034 ft 450 kts 140°
2026-04-25 15:08 41.84160 18.69664 37034 ft 447 kts 140°
2026-04-25 15:08 41.79280 18.74839 37027 ft 448 kts 140°
2026-04-25 15:09 41.74385 18.80003 37027 ft 449 kts 140°
2026-04-25 15:09 41.67059 18.87716 37024 ft 449 kts 140°
2026-04-25 15:10 41.62157 18.92860 37026 ft 446 kts 140°
2026-04-25 15:11 41.54841 19.00554 37022 ft 446 kts 140°
2026-04-25 15:11 41.49958 19.05673 37017 ft 446 kts 140°
2026-04-25 15:12 41.41888 19.11927 37027 ft 451 kts 156°
2026-04-25 15:12 41.37942 19.13865 37016 ft 452 kts 158°
2026-04-25 15:13 41.27116 19.19118 37022 ft 453 kts 158°
2026-04-25 15:14 41.21202 19.22004 37026 ft 453 kts 158°
2026-04-25 15:14 41.15282 19.24876 37025 ft 453 kts 158°
2026-04-25 15:15 41.09359 19.27747 37037 ft 453 kts 158°
2026-04-25 15:15 41.03428 19.30616 37024 ft 454 kts 158°
2026-04-25 15:16 40.97499 19.33476 37023 ft 454 kts 158°
2026-04-25 15:16 40.88603 19.37755 37037 ft 453 kts 158°
2026-04-25 15:17 40.79760 19.42023 37023 ft 453 kts 158°
2026-04-25 15:18 40.73836 19.44862 37021 ft 453 kts 158°
2026-04-25 15:18 40.64958 19.49112 37021 ft 452 kts 157°
2026-04-25 15:19 40.61000 19.51002 37017 ft 452 kts 157°
2026-04-25 15:19 40.53127 19.54749 37009 ft 452 kts 157°
2026-04-25 15:20 40.48214 19.57079 37012 ft 452 kts 157°
2026-04-25 15:20 40.42310 19.59885 37008 ft 451 kts 157°
2026-04-25 15:21 40.36412 19.62670 36996 ft 450 kts 157°
2026-04-25 15:21 40.30520 19.65438 36990 ft 450 kts 157°
2026-04-25 15:22 40.24626 19.68213 36993 ft 450 kts 157°
2026-04-25 15:22 40.18732 19.70993 36994 ft 450 kts 157°
2026-04-25 15:23 40.12838 19.73762 36987 ft 450 kts 157°
2026-04-25 15:23 40.06941 19.76510 36985 ft 450 kts 157°
2026-04-25 15:24 40.01053 19.79280 36989 ft 450 kts 156°
2026-04-25 15:24 39.96158 19.81578 36987 ft 450 kts 156°
2026-04-25 15:25 39.89263 19.84790 36976 ft 450 kts 156°
2026-04-25 15:25 39.83421 19.87700 36973 ft 449 kts 155°
2026-04-25 15:26 39.77602 19.90671 36974 ft 450 kts 155°
2026-04-25 15:26 39.71765 19.93610 36974 ft 450 kts 155°
2026-04-25 15:27 39.65923 19.96524 36970 ft 450 kts 156°
2026-04-25 15:28 39.57168 20.00896 36968 ft 450 kts 155°
2026-04-25 15:28 39.51331 20.03805 36967 ft 449 kts 156°
2026-04-25 15:29 39.45393 20.06382 36967 ft 452 kts 163°
2026-04-25 15:29 39.39147 20.07601 36970 ft 457 kts 174°
2026-04-25 15:30 39.32790 20.07945 36973 ft 457 kts 175°
2026-04-25 15:30 39.26434 20.08309 36975 ft 458 kts 175°
2026-04-25 15:31 39.20070 20.08679 36983 ft 458 kts 175°
2026-04-25 15:31 39.13706 20.09053 37003 ft 458 kts 174°
2026-04-25 15:32 39.07371 20.09420 36989 ft 459 kts 175°
2026-04-25 15:32 39.00988 20.09784 36992 ft 459 kts 175°
2026-04-25 15:33 38.91403 20.10349 37002 ft 460 kts 175°
2026-04-25 15:33 38.85000 20.10718 37006 ft 461 kts 175°
2026-04-25 15:34 38.78588 20.11084 37009 ft 461 kts 175°
2026-04-25 15:34 38.73256 20.11392 36945 ft 461 kts 175°
2026-04-25 15:35 38.65720 20.11823 35454 ft 469 kts 174°
2026-04-25 15:35 38.62442 20.12010 34627 ft 473 kts 174°
2026-04-25 15:35 38.59171 20.12192 34079 ft 469 kts 173°
2026-04-25 15:36 38.52658 20.12560 32493 ft 469 kts 174°
2026-04-25 15:36 38.49389 20.12748 31642 ft 471 kts 174°
2026-04-25 15:36 38.46105 20.12935 30864 ft 472 kts 174°
2026-04-25 15:37 38.42843 20.13018 30364 ft 468 kts 179°
2026-04-25 15:37 38.39600 20.12650 29663 ft 468 kts 187°
2026-04-25 15:37 38.36434 20.11796 29122 ft 463 kts 192°
2026-04-25 15:37 38.33330 20.10800 28547 ft 457 kts 192°
2026-04-25 15:38 38.30261 20.09826 27978 ft 452 kts 192°
2026-04-25 15:38 38.27225 20.08869 27420 ft 447 kts 192°
2026-04-25 15:38 38.24217 20.07927 26873 ft 443 kts 191°
2026-04-25 15:38 38.21239 20.06996 26317 ft 439 kts 191°
2026-04-25 15:39 38.18286 20.06072 25772 ft 435 kts 192°
2026-04-25 15:39 38.15357 20.05154 25219 ft 432 kts 192°
2026-04-25 15:39 38.12451 20.04245 24661 ft 429 kts 192°
2026-04-25 15:39 38.09558 20.03344 24124 ft 426 kts 192°
2026-04-25 15:40 38.06680 20.02449 23532 ft 425 kts 191°
2026-04-25 15:40 38.05751 20.02160 23323 ft 424 kts 192°
2026-04-25 15:40 38.00977 20.00823 22373 ft 415 kts 185°
2026-04-25 15:40 37.98120 20.00726 21774 ft 408 kts 171°
2026-04-25 15:41 37.95383 20.01476 21198 ft 399 kts 157°
2026-04-25 15:41 37.92850 20.02833 20694 ft 392 kts 151°
2026-04-25 15:41 37.90442 20.04412 20148 ft 388 kts 147°
2026-04-25 15:41 37.88153 20.06192 19593 ft 384 kts 143°
2026-04-25 15:42 37.85986 20.08146 19001 ft 382 kts 139°
2026-04-25 15:42 37.83939 20.10261 18472 ft 379 kts 136°
2026-04-25 15:42 37.82016 20.12520 17917 ft 375 kts 132°
2026-04-25 15:42 37.80230 20.14891 17404 ft 370 kts 128°
2026-04-25 15:43 37.78606 20.17326 16920 ft 364 kts 125°
2026-04-25 15:43 37.77101 20.19878 16405 ft 360 kts 122°
2026-04-25 15:43 37.75732 20.22509 15862 ft 357 kts 117°
2026-04-25 15:43 37.74748 20.25341 15347 ft 349 kts 102°
2026-04-25 15:44 37.74418 20.28343 14829 ft 343 kts 87°
2026-04-25 15:44 37.74450 20.31341 14328 ft 340 kts 87°
2026-04-25 15:44 37.74472 20.34330 13782 ft 340 kts 87°
2026-04-25 15:44 37.74487 20.37300 13280 ft 336 kts 88°
2026-04-25 15:45 37.74498 20.40237 12768 ft 333 kts 88°
2026-04-25 15:45 37.74507 20.43153 12273 ft 330 kts 88°
2026-04-25 15:45 37.74517 20.46043 11780 ft 328 kts 87°
2026-04-25 15:45 37.74521 20.47015 11619 ft 327 kts 87°
2026-04-25 15:46 37.74539 20.51753 10830 ft 323 kts 87°
2026-04-25 15:46 37.74550 20.54583 10307 ft 322 kts 88°
2026-04-25 15:46 37.74559 20.57419 10076 ft 326 kts 88°
2026-04-25 15:46 37.74475 20.60264 10008 ft 323 kts 99°
2026-04-25 15:47 37.73597 20.62824 9905 ft 317 kts 125°
2026-04-25 15:47 37.71922 20.64551 9801 ft 311 kts 153°
2026-04-25 15:47 37.69832 20.65042 9541 ft 308 kts 183°
2026-04-25 15:47 37.67826 20.64178 9218 ft 305 kts 211°
2026-04-25 15:48 37.65929 20.63009 8707 ft 304 kts 192°
2026-04-25 15:48 37.63860 20.62901 8344 ft 295 kts 166°
2026-04-25 15:48 37.62002 20.63872 7927 ft 287 kts 141°
2026-04-25 15:48 37.60703 20.65710 7494 ft 279 kts 115°
2026-04-25 15:49 37.60013 20.67969 7111 ft 275 kts 106°
2026-04-25 15:49 37.59357 20.70223 6775 ft 273 kts 109°
2026-04-25 15:49 37.58609 20.72418 6397 ft 273 kts 112°
2026-04-25 15:49 37.57778 20.74568 5970 ft 273 kts 114°
2026-04-25 15:50 37.56899 20.76685 5562 ft 272 kts 115°
2026-04-25 15:50 37.56072 20.78786 5155 ft 271 kts 109°
2026-04-25 15:50 37.55430 20.81002 4848 ft 266 kts 104°
2026-04-25 15:50 37.54954 20.83266 4313 ft 269 kts 98°
2026-04-25 15:51 37.54651 20.85610 3948 ft 266 kts 93°
2026-04-25 15:51 37.54591 20.86363 3812 ft 266 kts 92°
2026-04-25 15:51 37.54563 20.90195 3218 ft 261 kts 83°
2026-04-25 15:51 37.54767 20.92441 3029 ft 257 kts 77°
2026-04-25 15:52 37.55131 20.94660 2998 ft 260 kts 72°
2026-04-25 15:52 37.55703 20.96782 2950 ft 249 kts 56°
2026-04-25 15:52 37.56849 20.98266 2863 ft 231 kts 27°
2026-04-25 15:52 37.58333 20.98718 2761 ft 215 kts 355°
2026-04-25 15:53 37.59678 20.98075 2632 ft 206 kts 321°
2026-04-25 15:53 37.60567 20.96723 2564 ft 196 kts 306°
2026-04-25 15:53 37.61253 20.95298 2531 ft 181 kts 306°
2026-04-25 15:53 37.61961 20.94087 2461 ft 163 kts 315°
2026-04-25 15:54 37.62781 20.93177 2315 ft 151 kts 329°
2026-04-25 15:54 37.63659 20.92579 2164 ft 138 kts 339°
2026-04-25 15:54 37.64568 20.92211 1843 ft 137 kts 346°
2026-04-25 15:54 37.65518 20.91973 1576 ft 143 kts 349°
2026-04-25 15:55 37.66487 20.91718 1331 ft 140 kts 343°
2026-04-25 15:55 37.67404 20.91392 1131 ft 129 kts 341°
2026-04-25 15:55 37.68258 20.91038 1109 ft 129 kts 339°
2026-04-25 15:55 37.69092 20.90667 1120 ft 128 kts 340°
2026-04-25 15:56 37.69941 20.90345 1026 ft 128 kts 342°
2026-04-25 15:56 37.70806 20.90029 821 ft 130 kts 342°
2026-04-25 15:56 37.71668 20.89703 635 ft 128 kts 342°
2026-04-25 15:56 37.72523 20.89377 463 ft 131 kts 343°
2026-04-25 15:57 37.73400 20.89052 264 ft 129 kts 345°
2026-04-25 15:57 37.74276 20.88731 62 ft 132 kts 344°
2026-04-25 15:57 37.75110 20.88419 19 ft 102 kts 343°
2026-04-25 15:57 37.75506 20.88271 21 ft 26 kts 344°
2026-04-25 15:58 37.75626 20.88209 22 ft 15 kts 307°
2026-04-25 15:58 37.75670 20.88191 23 ft 3 kts 79°
2026-04-25 15:58 37.75609 20.88238 23 ft 16 kts 164°
2026-04-25 15:58 37.75500 20.88292 21 ft 16 kts 134°
2026-04-25 15:59 37.75474 20.88367 20 ft 3 kts 106°
2026-04-25 15:59 37.75455 20.88402 20 ft 7 kts 144°
2026-04-25 15:59 37.75435 20.88452 20 ft 7 kts 79°
2026-04-25 15:59 37.75444 20.88488 20 ft 1 kts 73°
2026-04-25 16:00 37.75448 20.88504 20 ft 2 kts 73°
2026-04-25 16:00 37.75448 20.88505 20 ft 0 kts 73°
2026-04-25 16:05 37.75448 20.88504 20 ft 0 kts 73°